Juan Carlos Paz

Olheiro-Chefe - Ferro Carril Oeste
25 Fev 2027
Quinta-feira
Processo

Personalidade

Adaptabilidade (7) Ambição (11) Controvérsia (7) Lealdade (1) Pressão (10) Profissionalismo (9) Espírito Esportivo (8) Temperamento (12)

Perfil

Estilo de Treinamento Democrático
Licença Nacional B
Determinação 6
Gestão de Pessoas 2
Motivação 6
Disciplina 6
Satisfação no Trabalho
50%
Fadiga
0%
Função Olheiro-Chefe
Salário 13.0K p/s
Contrato 14.03.2030

Desempenho

Comportamento Normal
Eficácia do Treinamento
11%
Desenvolvimento do Jogador
25%
Prevenção de Lesões
30%
Implementação Tática
35%

Eventos Recentes

Participou de uma reunião de recrutamento 14d atrás
Participou de uma reunião de recrutamento 21d atrás
Participou de uma reunião de recrutamento 21d atrás
Participou de uma reunião de recrutamento 21d atrás
Participou de uma reunião de recrutamento 21d atrás
Participou de uma reunião de recrutamento 21d atrás
Participou de uma reunião de recrutamento 28d atrás
Participou de uma reunião de recrutamento 28d atrás

Monitorando agora

113
Jogador Clube Status Habilidade Confiança Observado Última observação Último voto
Facundo Pérez Juventud Ativo 87 / 107 40% 1 29.11.2026 -
Raúl Lozano Quilmes Ativo 118 / 130 40% 1 29.11.2026 -
José Rivera Universitario Ativo 102 / 105 40% 3 28.11.2026 -
Damián Adín San Miguel Ativo 103 / 118 40% 1 28.11.2026 -
Pedro Souto Temperley Ativo 118 / 115 40% 1 27.11.2026 -
Gianluca Pugliese Güemes Ativo 129 / 102 40% 1 27.11.2026 -
Gonzalo Aguirre Cienciano Ativo 103 / 104 40% 1 26.11.2026 -
Wilfredo Peña Portuguesa Ativo 86 / 104 40% 2 22.11.2026 -
Agustín Ojeda Chaco For Ever Ativo 105 / 101 40% 1 22.11.2026 -
Santiago Homenchenko Queretaro Ativo 131 / 120 40% 2 20.11.2026 -
Miguel Ceccotti Güemes Rejeitado 113 / 112 40% 1 20.11.2026 Mais informações
Cristian Caicedo Estudiantes de Merida Ativo 98 / 88 40% 1 19.11.2026 -
Daniel Monardes San Luis Ativo 87 / 83 40% 1 18.11.2026 -
Tomás Porra Barracas Central Ativo 124 / 111 40% 1 18.11.2026 -
Aldahir Pérez Tijuana Ativo 84 / 119 40% 2 16.11.2026 -
Yuber Quiñónes Deportivo Pereira Ativo 113 / 114 40% 1 16.11.2026 -
Santiago Sala Güemes Ativo 100 / 116 40% 3 15.11.2026 -
Miguel Pernía Carabobo Ativo 112 / 114 40% 1 15.11.2026 -
Johan Madrid Sporting Cristal Ativo 98 / 100 40% 2 14.11.2026 -
Francisco Funes Los Andes Ativo 83 / 94 40% 1 14.11.2026 -
Lautaro Ríos Banfield Ativo 107 / 114 40% 1 13.11.2026 -
Samuel Lucero Defensa y Justicia Rejeitado 123 / 116 40% 1 13.11.2026 Mais informações
Víctor Rivero Aragua Ativo 112 / 105 40% 1 12.11.2026 -
Elías Contreras Morón Ativo 126 / 114 40% 1 12.11.2026 -
Brian Calderara Chacarita Juniors Ativo 112 / 107 40% 2 11.11.2026 -
Matías Samaniego Talleres Ativo 117 / 106 40% 1 11.11.2026 -
Franco Vedoya Central Norte Ativo 101 / 98 40% 1 08.11.2026 -
Guillermo Enrique Huracán Ativo 128 / 109 40% 1 08.11.2026 -
Ronaldo Peña Deportivo Lara Ativo 113 / 109 40% 1 06.11.2026 -
Julián Palacios Unión de Santa Fe Ativo 101 / 127 40% 1 06.11.2026 -
Pablo López Chiapas Ativo 87 / 86 40% 2 05.11.2026 -
Facundo Taborda Racing Rejeitado 118 / 121 40% 1 05.11.2026 Mais informações
Nelson Cabanillas Melgar Rejeitado 118 / 109 40% 1 03.11.2026 Mais informações
Gastón Moreyra Almirante Brown Ativo 111 / 113 40% 1 01.11.2026 -
Maximiliano Rueda Patronato Ativo 96 / 115 40% 1 01.11.2026 -
Jefferson Cáceres Melgar Ativo 98 / 112 40% 1 31.10.2026 -
Matías Viguet Maipú Ativo 106 / 105 40% 1 31.10.2026 -
Ramiro Hernandes Belgrano Ativo 120 / 126 40% 1 30.10.2026 -
Juan Velázquez Belgrano Ativo 135 / 125 40% 1 27.10.2026 -
Jan Franc Lucumí America de Cali Ativo 124 / 120 40% 1 27.10.2026 -
Paul Rothrock Seattle Sounders Ativo 128 / 120 40% 1 25.10.2026 -
Adrián Fernández Racing Club Ativo 105 / 118 40% 1 24.10.2026 -
Alejo Montero Newell's Old Boys Ativo 123 / 127 40% 1 21.10.2026 -
Mathieu Choinière Los Angeles Football Club Ativo 116 / 116 40% 2 20.10.2026 -
Augusto Berrondo Tristán Suárez Ativo 104 / 103 40% 1 20.10.2026 -
Kevin González Trujillanos Ativo 90 / 92 40% 1 19.10.2026 -
Federico Bisanz Atlanta Ativo 125 / 105 40% 1 19.10.2026 -
Maico Quiroz Güemes Ativo 103 / 122 40% 1 14.10.2026 -
Tyrese Spicer Orlando City Ativo 106 / 88 40% 1 14.10.2026 -
Emiliano Viveros Argentinos Juniors Ativo 130 / 110 40% 1 10.10.2026 -
Guilherme Biro Austin FC Ativo 107 / 125 40% 1 10.10.2026 -
Jorge Murrugarra Universitario Ativo 129 / 117 40% 1 09.10.2026 -
Diego Valencia Universidad Catolica Ativo 108 / 99 40% 1 09.10.2026 -
Manuel Duarte Barracas Central Ativo 119 / 117 40% 1 07.10.2026 -
Federico Sena Estudiantes Ativo 91 / 104 40% 1 07.10.2026 -
Matías López Guarani Ativo 88 / 105 40% 1 04.10.2026 -
Francisco Ginella Albion Ativo 101 / 110 40% 1 01.10.2026 -
Marcelo Fernández Libertad Ativo 109 / 124 40% 1 29.09.2026 -
Willimger Castillo Deportivo Lara Ativo 106 / 88 40% 1 27.09.2026 -
Ángel Figueroa Caracas Ativo 77 / 81 40% 1 27.09.2026 -
Lucio Castillo Colegiales Ativo 93 / 115 40% 1 25.09.2026 -
Luis Olivera Defensores Unidos Ativo 118 / 109 40% 1 24.09.2026 -
Bastián Yáñez O'Higgins Ativo 122 / 109 40% 1 24.09.2026 -
Juan Ignacio Méndez Instituto Ativo 127 / 118 40% 1 23.09.2026 -
Jon Russell CF Montreal Ativo 129 / 95 40% 1 23.09.2026 -
Noah Allen Inter Miami CF Ativo 130 / 127 40% 1 20.09.2026 -
Hugo Martínez Libertad Ativo 120 / 122 40% 1 20.09.2026 -
Daniel Arcila Leon Ativo 120 / 96 40% 1 18.09.2026 -
George Ayine Metropolitanos Ativo 88 / 106 40% 1 18.09.2026 -
Ignacio Lago Colón Ativo 114 / 110 40% 1 16.09.2026 -
Cristian Trujillo Deportes Tolima Ativo 114 / 123 40% 1 16.09.2026 -
Edwin Cerrillo Club America Ativo 112 / 125 40% 1 15.09.2026 -
Juan Pablo Barinaga Patronato Ativo 97 / 122 40% 1 13.09.2026 -
Facundo Vega Rentistas Ativo 101 / 92 40% 1 08.09.2026 -
César Munder Palestino Ativo 114 / 108 40% 1 08.09.2026 -
Kevin Palacios Santos Laguna Ativo 110 / 107 40% 1 07.09.2026 -
Facundo Castet Colón Ativo 96 / 98 40% 1 05.09.2026 -
Fabián Ángel Junior Ativo 127 / 121 40% 1 05.09.2026 -
Facundo Waller Huracán Ativo 108 / 118 40% 2 03.09.2026 -
Juan Fernando Alfaro Olimpia Ativo 100 / 122 40% 1 03.09.2026 -
Dylan Lozano Aguilas Doradas Ativo 109 / 106 40% 2 02.09.2026 -
Milton Valenzuela Atlas Ativo 102 / 113 40% 1 02.09.2026 -
Facundo Muñoa Boston River Ativo 99 / 117 40% 1 01.09.2026 -
Hector Hernandez La Equidad Ativo 89 / 111 40% 1 31.08.2026 -
Carlos Adrián Sánchez Pachuca Ativo 105 / 120 40% 1 31.08.2026 -
Jhon Navia Junior Ativo 103 / 107 40% 1 29.08.2026 -
Lautaro Lovazzano Portuguesa Ativo 105 / 105 40% 1 29.08.2026 -
Keiver Zúñiga Portuguesa Ativo 107 / 90 40% 1 28.08.2026 -
Aldair Gutiérrez Atletico Bucaramanga Ativo 117 / 108 40% 1 23.08.2026 -
Juan Camilo Mosquera Atletico Bucaramanga Ativo 115 / 111 40% 1 23.08.2026 -
Santiago Costa Albion Ativo 112 / 116 40% 2 19.08.2026 -
Mathías Rodríguez Cerrito Ativo 117 / 101 40% 1 19.08.2026 -
Ezequiel Olivera Liverpool Montevideo Ativo 105 / 109 40% 1 18.08.2026 -
Jáder Quiñónes Once Caldas Ativo 110 / 113 40% 1 18.08.2026 -
Carlos Airala Albion Ativo 95 / 96 40% 1 17.08.2026 -
Leandro Meza Nacional Ativo 96 / 121 40% 1 16.08.2026 -
Esteban Beltrán Jaguares Ativo 92 / 99 40% 1 16.08.2026 -
Jonathan Pérez Guadalajara Ativo 117 / 118 40% 1 15.08.2026 -
Éwil Murillo Santa Fe Ativo 107 / 121 40% 1 15.08.2026 -
Cristian Carbajal Alianza Lima Ativo 105 / 123 40% 1 14.08.2026 -
Rodrigo López Pumas UNAM Ativo 103 / 112 40% 1 12.08.2026 -
Ariel Muñoz Alianza Atletico Ativo 113 / 96 40% 1 11.08.2026 -
Nicolás Castro Toluca Ativo 115 / 130 40% 1 11.08.2026 -
Diego Fernández Guarani Ativo 106 / 107 40% 1 08.08.2026 -
Christian Ebere Cruz Azul Ativo 108 / 103 40% 1 08.08.2026 -
Santiago Simón Toluca Ativo 129 / 124 40% 1 07.08.2026 -
Diego Castillo Real Cartagena Ativo 108 / 100 40% 1 07.08.2026 -
Andrés Amaya Fortaleza CEIF Ativo 127 / 108 40% 1 04.08.2026 -
Brian González Atenas Ativo 101 / 108 40% 1 04.08.2026 -
Ignacio Núñez Union Espanola Ativo 88 / 109 40% 1 03.08.2026 -
Pável Pérez Toluca Ativo 122 / 104 40% 1 03.08.2026 -
Richard Prieto Nacional Ativo 115 / 121 40% 1 02.08.2026 -
Marco Farfan Tigres Ativo 108 / 124 40% 1 02.08.2026 -